Regional Weather Roundup
Issued by NWS

Home | Current Version | Previous Version | Graphics & Text | Print | Product List | Glossary On
Versions: 1 2 3 4 5 6 7 8 9 10 11 12 13 14 15 16 17 18 19 20 21 22 23 24 25 26 27 28 29 30 31 32 33 34 35 36 37 38 39 40 41 42 43 44 45 46 47 48 49 50
000
ASUS44 KMEG 271110
RWRTN
TENNESSEE HOURLY STATE WEATHER ROUNDUP
NATIONAL WEATHER SERVICE MEMPHIS TN
600 AM CDT WED AUG 27 2014

TNZ002-004-019-021-049-052-054-088>092-271200-
WEST TENNESSEE

CITY           SKY/WX    TMP DP  RH WIND       PRES   REMARKS
MEMPHIS INTL   PTCLDY    77  68  73 CALM      30.07S
NWS MEMPHIS      N/A     71 N/A N/A MISG        N/A
JACKSON        CLEAR     68  66  94 CALM      30.08S FOG
DYERSBURG      CLEAR     72  63  73 CALM      30.08S
UNION CITY     CLEAR     70  68  94 CALM      30.08R
PARIS          PTCLDY    68  66  94 CALM      30.09S
HUNTINGDON     CLEAR     69  69 100 CALM      30.09R
LEXINGTON      CLOUDY    66  66 100 CALM      30.08R VSB 1/4
SAVANNAH       CLEAR     64  64 100 CALM      30.09R
$$

TNZ008-025-027-028-033-062-065-066-271200-
NORTH MIDDLE TENNESSEE

CITY           SKY/WX    TMP DP  RH WIND       PRES   REMARKS
NASHVILLE      MOCLDY    71  69  93 CALM      30.09S
DICKSON        PTCLDY    72  68  88 CALM      30.09S
PORTLAND       CLEAR     68  66  94 CALM      30.09R
CLARKSVILLE    CLEAR     70  69  97 CALM      30.09R FOG
LEBANON        PTCLDY    67  66  96 CALM      30.08S
SMYRNA         PTCLDY    69  68  97 CALM      30.10R
MURFREESBORO   PTCLDY    68  66  93 CALM      30.09S
COOKEVILLE     CLOUDY    64  64 100 CALM      30.12R VSB 1/4
LIVINGSTON     CLEAR     67  67 100 W6        30.12
GALLATIN       PTCLDY    69  69 100 CALM      30.10S
CROSSVILLE     CLOUDY    66  60  81 CALM      30.16R HAZE
$$

TNZ061-075-076-078-094-096-097-271200-
SOUTH MIDDLE TENNESSEE

CITY           SKY/WX    TMP DP  RH WIND       PRES   REMARKS
LEWISBURG      PTCLDY    63  61  93 CALM      30.10R
FAYETTEVILLE   CLEAR     64  64 100 NE3       30.11R
TULLAHOMA      PTCLDY    63  61  94 CALM      30.13R
WINCHESTER     CLEAR     63  63 100 CALM      30.12R
MCMINNVILLE    CLOUDY    64  64 100 CALM      30.12R VSB 1/4
COLUMBIA         N/A     66  66 100 CALM      30.09S
SHELBYVILLE    CLEAR     66  66 100 E3        30.12R
$$

TNZ017-018-042-046-047-271200-
NORTHEAST TENNESSEE

CITY           SKY/WX    TMP DP  RH WIND       PRES   REMARKS
TRI CITIES     PTCLDY    56  54  93 CALM      30.15R
ELIZABETHTON   SUNNY     55  55 100 CALM      30.16R
$$

TNZ012-013-036-069-073-074-271200-
CENTRAL EAST TENNESSEE

CITY           SKY/WX    TMP DP  RH WIND       PRES   REMARKS
KNOXVILLE      PTCLDY    64  62  93 NE3       30.11R
OAK RIDGE      CLOUDY    66  65  96 CALM      30.13R FOG
GATLINBURG     SUNNY     59  57  94 CALM      30.12R
MORRISTOWN     SUNNY     61  61 100 CALM      30.15R
$$

TNZ083-085-099-271200-
SOUTHEAST TENNESSEE

CITY           SKY/WX    TMP DP  RH WIND       PRES   REMARKS
CHATTANOOGA    PTCLDY    68  64  87 CALM      30.11R
$$

SKY/WX REPORTED AS FAIR MEANS FEW OR NO CLOUDS BELOW
12 THOUSAND FEET.



USA.gov is the U.S. government's official web portal to all federal, state and local government web resources and services.